M I D A S
Marine Information and Data Acquisition System
Tripno 1668 of the Zeeleeuw from 2009-04-02 06:09:01 to 2009-04-02 15:49:45
Back to CruiseResearch ActivitiesStationsMapUnderway DataData graphs

EquipmentUnitsComments
TimeDGPSUTC
LatitudeDGPSDM.mWGS84
LongitudeDGPSDM.mWGS84
SpeedMeteo Stationm/sRelative wind speed
DirectionMeteo StationdegRelative wind direction
TemperatureMeteo Stationdeg CelciusAir temperature
PressureMeteo StationPaAtmospheric pressure
HumidityMeteo Station%Relative humidity
Missing or incorrect values are displayed as -999
Metereological data collected by the RV Zeeleeuw from 2009-04-02 05:58:47 to 2009-04-02 15:58:06
                                                                                    Next 1000 lines
Time Latitude Longitude Speed Direction Temperature Pressure Humidity
2009-04-02 05:58:56 51°13.663 2°55.959 3 304 7.5 101860 91
2009-04-02 05:59:02 51°13.663 2°55.959 3.5 317 7.5 101860 91
2009-04-02 05:59:07 51°13.663 2°55.959 3.6 302 7.5 101860 91
2009-04-02 05:59:12 51°13.663 2°55.959 3.7 26 7.5 101860 91
2009-04-02 05:59:17 51°13.663 2°55.959 2.1 304 7.5 101860 91
2009-04-02 05:59:22 51°13.663 2°55.959 5 245 7.5 101860 91
2009-04-02 05:59:27 51°13.664 2°55.959 3 307 7.5 101860 91
2009-04-02 05:59:32 51°13.663 2°55.959 3.5 254 7.5 101860 91
2009-04-02 05:59:36 51°13.662 2°55.959 4.8 304 7.5 101860 91
2009-04-02 05:59:42 51°13.663 2°55.959 5.4 21 7.5 101860 91
2009-04-02 05:59:47 51°13.663 2°55.959 5.2 302 7.5 101860 91
2009-04-02 05:59:52 51°13.663 2°55.959 3.2 247 7.5 101860 91
2009-04-02 05:59:56 51°13.663 2°55.959 3.7 281 7.5 101860 91
2009-04-02 06:00:02 51°13.663 2°55.959 2.5 21 7.5 101860 90
2009-04-02 06:00:07 51°13.663 2°55.959 2.7 301 7.5 101860 90
2009-04-02 06:00:12 51°13.663 2°55.959 2.7 252 7.5 101860 91
2009-04-02 06:00:16 51°13.663 2°55.959 2.7 303 7.5 101860 91
2009-04-02 06:00:22 51°13.663 2°55.959 3.8 248 7.5 101860 91
2009-04-02 06:00:27 51°13.663 2°55.959 2.1 304 7.5 101860 91
2009-04-02 06:00:32 51°13.662 2°55.959 3.2 316 7.5 101860 91
2009-04-02 06:00:37 51°13.662 2°55.959 3.6 309 7.5 101860 91
2009-04-02 06:00:42 51°13.662 2°55.959 2.9 20 7.5 101870 91
2009-04-02 06:00:47 51°13.662 2°55.959 4.8 310 7.5 101870 91
2009-04-02 06:00:52 51°13.662 2°55.959 4.6 26 7.5 101860 90
2009-04-02 06:00:56 51°13.663 2°55.959 4.5 308 7.5 101860 90
2009-04-02 06:01:01 51°13.663 2°55.959 3.4 21 7.5 101860 91
2009-04-02 06:01:07 51°13.663 2°55.959 3.5 309 7.5 101860 91
2009-04-02 06:01:12 51°13.663 2°55.959 2.3 245 7.5 101860 91
2009-04-02 06:01:17 51°13.663 2°55.959 3.2 304 7.5 101860 91
2009-04-02 06:01:22 51°13.663 2°55.959 2.7 24 7.5 101860 91
2009-04-02 06:01:27 51°13.664 2°55.959 3.1 308 7.5 101860 91
2009-04-02 06:01:32 51°13.665 2°55.959 3.9 22 7.5 101860 91
2009-04-02 06:01:37 51°13.665 2°55.959 4.6 304 7.5 101860 91
2009-04-02 06:01:42 51°13.665 2°55.959 3.9 22 7.5 101860 90
2009-04-02 06:01:47 51°13.665 2°55.959 5.8 310 7.5 101860 90
2009-04-02 06:01:52 51°13.665 2°55.959 5.2 248 7.5 101860 90
2009-04-02 06:01:57 51°13.665 2°55.959 4.5 306 7.5 101860 90
2009-04-02 06:02:02 51°13.663 2°55.959 2.7 253 7.5 101860 90
2009-04-02 06:02:07 51°13.663 2°55.959 3.6 304 7.5 101860 90
2009-04-02 06:02:12 51°13.663 2°55.959 4.9 21 7.5 101870 90
2009-04-02 06:02:17 51°13.662 2°55.959 4.5 309 7.5 101870 90
2009-04-02 06:02:22 51°13.662 2°55.959 3.1 25 7.5 101860 91
2009-04-02 06:02:27 51°13.662 2°55.959 3.9 310 7.5 101860 91
2009-04-02 06:02:32 51°13.662 2°55.959 3.9 25 7.5 101860 91
2009-04-02 06:02:37 51°13.662 2°55.959 3.2 305 7.5 101860 91
2009-04-02 06:02:42 51°13.662 2°55.959 3.5 19 7.5 101860 91
2009-04-02 06:02:47 51°13.662 2°55.959 4.8 310 7.5 101860 91
2009-04-02 06:02:52 51°13.662 2°55.959 5.4 247 7.5 101860 90
2009-04-02 06:02:57 51°13.662 2°55.959 5 303 7.5 101860 90
2009-04-02 06:03:02 51°13.662 2°55.959 4.2 27 7.5 101870 91
2009-04-02 06:03:06 51°13.662 2°55.959 4.6 305 7.5 101870 91
2009-04-02 06:03:12 51°13.662 2°55.959 3.1 18 7.5 101860 91
2009-04-02 06:03:17 51°13.662 2°55.959 3.2 309 7.5 101860 91
2009-04-02 06:03:22 51°13.662 2°55.959 2.5 26 7.5 101860 90
2009-04-02 06:03:26 51°13.662 2°55.959 2.8 305 7.5 101860 90
2009-04-02 06:03:32 51°13.662 2°55.959 2.9 26 7.5 101860 90
2009-04-02 06:03:37 51°13.662 2°55.959 3.7 309 7.5 101860 90
2009-04-02 06:03:42 51°13.662 2°55.959 4.2 20 7.5 101860 91
2009-04-02 06:03:46 51°13.662 2°55.959 4.2 302 7.5 101860 91
2009-04-02 06:03:52 51°13.662 2°55.959 4 22 7.5 101860 91
2009-04-02 06:03:57 51°13.662 2°55.959 6.1 309 7.5 101860 91
2009-04-02 06:04:02 51°13.662 2°55.959 4.3 22 7.5 101860 90
2009-04-02 06:04:07 51°13.662 2°55.959 2.5 303 7.5 101860 90
2009-04-02 06:04:12 51°13.662 2°55.959 5.3 19 7.5 101860 91
2009-04-02 06:04:17 51°13.662 2°55.959 3.6 309 7.5 101860 91
2009-04-02 06:04:21 51°13.662 2°55.959 3.1 23 7.5 101860 91
2009-04-02 06:04:27 51°13.662 2°55.959 4.3 304 7.5 101860 91
2009-04-02 06:04:32 51°13.662 2°55.959 4.9 21 7.5 101860 90
2009-04-02 06:04:37 51°13.662 2°55.959 3.9 304 7.5 101860 90
2009-04-02 06:04:42 51°13.662 2°55.959 3.9 18 7.5 101860 90
2009-04-02 06:04:47 51°13.662 2°55.959 3.6 305 7.5 101860 90
2009-04-02 06:04:52 51°13.662 2°55.958 3.5 24 7.5 101860 90
2009-04-02 06:04:57 51°13.662 2°55.959 3.3 304 7.5 101860 90
2009-04-02 06:05:02 51°13.662 2°55.959 2.7 24 7.5 101860 90
2009-04-02 06:05:07 51°13.662 2°55.959 3 305 7.5 101860 90
2009-04-02 06:05:12 51°13.662 2°55.959 2.6 252 7.5 101860 90
2009-04-02 06:05:17 51°13.662 2°55.959 3 308 7.5 101860 90
2009-04-02 06:05:22 51°13.663 2°55.959 2.7 20 7.5 101860 90
2009-04-02 06:05:27 51°13.663 2°55.96 2.3 309 7.5 101860 90
2009-04-02 06:05:32 51°13.663 2°55.96 2.1 249 7.5 101860 90
2009-04-02 06:05:37 51°13.663 2°55.96 3.1 305 7.5 101860 90
2009-04-02 06:05:42 51°13.663 2°55.96 3 24 7.5 101860 90
2009-04-02 06:05:47 51°13.663 2°55.96 3.3 303 7.5 101860 90
2009-04-02 06:05:52 51°13.663 2°55.96 4.6 247 7.5 101860 90
2009-04-02 06:05:57 51°13.663 2°55.96 3.6 305 7.5 101860 90
2009-04-02 06:06:01 51°13.663 2°55.96 3.5 18 7.5 101850 90
2009-04-02 06:06:07 51°13.663 2°55.96 3.5 306 7.5 101850 90
2009-04-02 06:06:12 51°13.663 2°55.96 3.4 248 7.5 101860 90
2009-04-02 06:06:17 51°13.663 2°55.96 2.2 304 7.5 101860 90
2009-04-02 06:06:22 51°13.663 2°55.96 2.7 21 7.5 101860 90
2009-04-02 06:06:27 51°13.662 2°55.96 3.7 309 7.5 101860 90
2009-04-02 06:06:32 51°13.662 2°55.96 3.6 21 7.6 101860 90
2009-04-02 06:06:37 51°13.662 2°55.959 2.9 307 7.6 101860 90
2009-04-02 06:06:42 51°13.662 2°55.959 2.4 328 7.5 101860 90
2009-04-02 06:06:47 51°13.662 2°55.96 2.9 305 7.5 101860 90
2009-04-02 06:06:52 51°13.662 2°55.959 3.9 25 7.6 101860 90
2009-04-02 06:06:57 51°13.662 2°55.959 4.2 305 7.6 101860 90
2009-04-02 06:07:02 51°13.662 2°55.959 4 25 7.5 101860 90
2009-04-02 06:07:07 51°13.662 2°55.959 3.6 304 7.5 101860 90
2009-04-02 06:07:12 51°13.662 2°55.959 3.5 26 7.5 101860 90
2009-04-02 06:07:17 51°13.662 2°55.959 3.7 304 7.5 101860 90
2009-04-02 06:07:22 51°13.662 2°55.959 4.3 317 7.5 101860 91
2009-04-02 06:07:27 51°13.662 2°55.959 3.8 304 7.5 101860 91
2009-04-02 06:07:32 51°13.661 2°55.959 4 24 7.5 101860 90
2009-04-02 06:07:37 51°13.661 2°55.958 2.5 304 7.5 101860 90
2009-04-02 06:07:42 51°13.661 2°55.957 3.3 26 7.5 101860 90
2009-04-02 06:07:47 51°13.662 2°55.955 3.3 310 7.5 101860 90
2009-04-02 06:07:52 51°13.663 2°55.952 4.4 18 7.5 101860 90
2009-04-02 06:07:57 51°13.664 2°55.948 2.4 310 7.5 101860 90
2009-04-02 06:08:02 51°13.665 2°55.943 3.3 25 7.5 101860 90
2009-04-02 06:08:08 51°13.667 2°55.937 3.2 309 7.5 101860 90
2009-04-02 06:08:13 51°13.668 2°55.931 3.6 20 7.5 101860 90
2009-04-02 06:08:19 51°13.67 2°55.924 3.8 310 7.5 101860 90
2009-04-02 06:08:26 51°13.673 2°55.915 4.4 18 7.5 101860 90
2009-04-02 06:08:31 51°13.674 2°55.908 2.7 303 7.5 101860 90
2009-04-02 06:08:36 51°13.676 2°55.901 3.1 268 7.5 101860 90
2009-04-02 06:08:41 51°13.677 2°55.894 3.3 303 7.5 101860 90
2009-04-02 06:08:46 51°13.679 2°55.886 2.3 27 7.5 101860 90
2009-04-02 06:08:50 51°13.681 2°55.88 1.4 307 7.5 101860 90
2009-04-02 06:08:56 51°13.683 2°55.871 2.7 256 7.6 101860 90
2009-04-02 06:09:01 51°13.686 2°55.863 1.6 304 7.6 101860 90
2009-04-02 06:09:06 51°13.688 2°55.856 1.4 28 7.6 101860 90
2009-04-02 06:09:10 51°13.689 2°55.85 1.3 305 7.6 101860 90
2009-04-02 06:09:15 51°13.691 2°55.843 2.6 258 7.6 101860 90
2009-04-02 06:09:21 51°13.692 2°55.836 3.2 307 7.6 101860 90
2009-04-02 06:09:26 51°13.694 2°55.829 2.6 26 7.6 101860 90
2009-04-02 06:09:30 51°13.695 2°55.825 2.2 304 7.6 101860 90
2009-04-02 06:09:35 51°13.697 2°55.819 3.1 259 7.5 101860 90
2009-04-02 06:09:40 51°13.698 2°55.813 4 308 7.5 101860 90
2009-04-02 06:09:45 51°13.7 2°55.807 4.9 257 7.6 101860 91
2009-04-02 06:09:50 51°13.702 2°55.802 4 309 7.6 101860 91
2009-04-02 06:09:54 51°13.704 2°55.797 4.3 249 7.6 101860 90
2009-04-02 06:09:59 51°13.706 2°55.792 3.9 309 7.6 101860 90
2009-04-02 06:10:04 51°13.708 2°55.786 3.1 258 7.6 101860 90
2009-04-02 06:10:10 51°13.71 2°55.78 2 52 7.6 101860 90
2009-04-02 06:10:15 51°13.712 2°55.775 0.9 269 7.6 101860 91
2009-04-02 06:10:20 51°13.714 2°55.769 1.8 314 7.6 101860 91
2009-04-02 06:10:26 51°13.717 2°55.763 3.1 269 7.6 101860 90
2009-04-02 06:10:30 51°13.72 2°55.759 2.5 308 7.6 101860 90
2009-04-02 06:10:35 51°13.723 2°55.753 3.3 27 7.6 101850 91
2009-04-02 06:10:41 51°13.727 2°55.747 2.8 307 7.6 101850 91
2009-04-02 06:10:46 51°13.731 2°55.742 3.6 266 7.6 101850 90
2009-04-02 06:10:51 51°13.734 2°55.737 3.2 307 7.6 101850 90
2009-04-02 06:10:56 51°13.738 2°55.732 2.9 263 7.6 101860 90
2009-04-02 06:11:01 51°13.741 2°55.728 2 303 7.6 101860 90
2009-04-02 06:11:06 51°13.743 2°55.726 2.2 260 7.6 101860 90
2009-04-02 06:11:10 51°13.743 2°55.725 0.9 58 7.6 101860 90
2009-04-02 06:11:16 51°13.742 2°55.725 1.2 268 7.6 101870 90
2009-04-02 06:11:21 51°13.741 2°55.725 1.1 305 7.6 101870 90
2009-04-02 06:11:26 51°13.74 2°55.725 1.5 16 7.6 101860 91
2009-04-02 06:11:30 51°13.74 2°55.725 2.2 57 7.6 101860 91
2009-04-02 06:11:35 51°13.741 2°55.724 3.1 265 7.6 101860 90
2009-04-02 06:11:41 51°13.742 2°55.721 2.5 309 7.6 101860 90
2009-04-02 06:11:46 51°13.744 2°55.719 3 24 7.6 101860 90
2009-04-02 06:11:50 51°13.746 2°55.717 2.9 307 7.6 101860 90
2009-04-02 06:11:55 51°13.748 2°55.713 4 259 7.6 101860 90
2009-04-02 06:12:01 51°13.752 2°55.71 3.1 305 7.6 101860 90
2009-04-02 06:12:06 51°13.755 2°55.706 3 30 7.6 101860 91
2009-04-02 06:12:10 51°13.757 2°55.704 3.6 311 7.6 101860 91
2009-04-02 06:12:15 51°13.761 2°55.7 4 31 7.6 101860 90
2009-04-02 06:12:21 51°13.766 2°55.696 4.5 304 7.6 101860 90
2009-04-02 06:12:26 51°13.77 2°55.692 3.1 266 7.6 101860 90
2009-04-02 06:12:31 51°13.775 2°55.688 4.8 55 7.6 101860 90
2009-04-02 06:12:35 51°13.779 2°55.685 2.3 266 7.6 101860 90
2009-04-02 06:12:41 51°13.784 2°55.68 3.1 55 7.6 101860 90
2009-04-02 06:12:46 51°13.789 2°55.676 2.4 25 7.6 101870 90
2009-04-02 06:12:51 51°13.794 2°55.672 3.5 50 7.6 101870 90
2009-04-02 06:12:56 51°13.8 2°55.668 4.2 21 7.6 101860 90
2009-04-02 06:13:01 51°13.805 2°55.664 2.4 57 7.6 101860 90
2009-04-02 06:13:06 51°13.811 2°55.661 3.5 267 7.6 101860 90
2009-04-02 06:13:11 51°13.818 2°55.658 3.4 53 7.6 101860 90
2009-04-02 06:13:16 51°13.824 2°55.655 2.7 24 7.6 101860 90
2009-04-02 06:13:21 51°13.83 2°55.652 4.3 51 7.6 101860 90
2009-04-02 06:13:26 51°13.837 2°55.649 4.7 25 7.6 101860 90
2009-04-02 06:13:30 51°13.842 2°55.646 4.5 56 7.6 101860 90
2009-04-02 06:13:36 51°13.85 2°55.643 4.7 26 7.6 101860 90
2009-04-02 06:13:41 51°13.856 2°55.64 5.2 51 7.6 101860 90
2009-04-02 06:13:46 51°13.862 2°55.637 6 22 7.7 101860 91
2009-04-02 06:13:50 51°13.867 2°55.635 5.8 315 7.7 101860 91
2009-04-02 06:13:55 51°13.873 2°55.632 5.6 20 7.6 101860 91
2009-04-02 06:14:01 51°13.88 2°55.63 5.3 53 7.6 101860 91
2009-04-02 06:14:06 51°13.886 2°55.629 5.7 21 7.6 101870 90
2009-04-02 06:14:10 51°13.89 2°55.628 4.7 51 7.6 101870 90
2009-04-02 06:14:15 51°13.895 2°55.627 4.1 23 7.6 101870 90
2009-04-02 06:14:21 51°13.902 2°55.627 4.6 49 7.6 101870 90
2009-04-02 06:14:26 51°13.906 2°55.627 3.7 18 7.6 101860 90
2009-04-02 06:14:31 51°13.911 2°55.627 4.6 56 7.6 101860 90
2009-04-02 06:14:35 51°13.914 2°55.627 6.1 20 7.6 101860 90
2009-04-02 06:14:41 51°13.919 2°55.628 6 51 7.6 101860 90
2009-04-02 06:14:46 51°13.923 2°55.629 6.5 25 7.6 101860 90
2009-04-02 06:14:50 51°13.926 2°55.63 5.4 53 7.6 101860 90
2009-04-02 06:14:55 51°13.929 2°55.631 4.5 25 7.6 101860 90
2009-04-02 06:15:00 51°13.932 2°55.632 4.2 50 7.6 101860 90
2009-04-02 06:15:05 51°13.935 2°55.633 4.3 26 7.6 101870 90
2009-04-02 06:15:10 51°13.937 2°55.634 5.2 53 7.6 101870 90
2009-04-02 06:15:15 51°13.939 2°55.634 3.8 24 7.6 101860 90
2009-04-02 06:15:20 51°13.94 2°55.634 3.4 58 7.6 101860 90
2009-04-02 06:15:24 51°13.94 2°55.634 3.5 24 7.6 101860 90
2009-04-02 06:15:30 51°13.94 2°55.633 2.7 53 7.6 101860 90
2009-04-02 06:15:34 51°13.94 2°55.631 2.9 22 7.7 101860 90
2009-04-02 06:15:39 51°13.94 2°55.629 3.5 55 7.7 101860 90
2009-04-02 06:15:44 51°13.939 2°55.627 3.5 20 7.7 101860 90
2009-04-02 06:15:49 51°13.939 2°55.624 1.8 49 7.7 101860 90
2009-04-02 06:15:54 51°13.939 2°55.62 3.6 19 7.7 101860 90
2009-04-02 06:15:58 51°13.939 2°55.616 4.4 43 7.7 101860 90
2009-04-02 06:16:03 51°13.938 2°55.611 4.9 25 7.7 101860 90
2009-04-02 06:16:08 51°13.939 2°55.606 3.5 55 7.7 101860 90
2009-04-02 06:16:13 51°13.939 2°55.601 3.1 32 7.7 101860 91
2009-04-02 06:16:18 51°13.94 2°55.595 2.7 33 7.7 101860 91
2009-04-02 06:16:23 51°13.942 2°55.589 3.7 31 7.7 101860 90
2009-04-02 06:16:27 51°13.943 2°55.584 3.7 30 7.7 101860 90
2009-04-02 06:16:32 51°13.945 2°55.578 3.8 25 7.7 101850 90
2009-04-02 06:16:37 51°13.948 2°55.572 3.4 17 7.7 101850 90
2009-04-02 06:16:42 51°13.951 2°55.567 3.3 14 7.7 101850 90
2009-04-02 06:16:46 51°13.954 2°55.562 3.4 14 7.7 101850 90
2009-04-02 06:16:52 51°13.958 2°55.555 3.7 15 7.7 101850 90
2009-04-02 06:16:57 51°13.962 2°55.55 3.7 8 7.7 101850 90
2009-04-02 06:17:02 51°13.967 2°55.545 3.6 3 7.7 101850 90
2009-04-02 06:17:07 51°13.973 2°55.541 3.2 5 7.7 101850 90
2009-04-02 06:17:11 51°13.977 2°55.538 4 3 7.7 101850 90
2009-04-02 06:17:17 51°13.984 2°55.533 3.2 2 7.7 101850 90
2009-04-02 06:17:22 51°13.99 2°55.529 4.1 348 7.7 101850 90
2009-04-02 06:17:27 51°13.996 2°55.524 4.1 360 7.7 101850 90
2009-04-02 06:17:31 51°14.001 2°55.52 4.2 5 7.7 101860 90
2009-04-02 06:17:37 51°14.009 2°55.514 3.5 2 7.7 101860 90
2009-04-02 06:17:42 51°14.016 2°55.508 4.3 353 7.8 101850 90
2009-04-02 06:17:47 51°14.024 2°55.502 4.8 353 7.8 101850 90
2009-04-02 06:17:52 51°14.031 2°55.496 5.1 358 7.7 101850 90
2009-04-02 06:17:57 51°14.039 2°55.489 5 354 7.7 101850 90
2009-04-02 06:18:02 51°14.047 2°55.482 5.9 2 7.7 101850 90
2009-04-02 06:18:07 51°14.056 2°55.475 5.3 350 7.7 101850 90
2009-04-02 06:18:12 51°14.065 2°55.467 6.4 352 7.7 101850 90
2009-04-02 06:18:17 51°14.073 2°55.459 4.2 -999 7.7 101850 90
2009-04-02 06:18:22 51°14.082 2°55.451 4.8 349 7.7 101850 90
2009-04-02 06:18:26 51°14.09 2°55.445 7.6 3 7.7 101850 90
2009-04-02 06:18:32 51°14.101 2°55.434 5.9 5 7.7 101850 90
2009-04-02 06:18:37 51°14.111 2°55.426 6.3 354 7.7 101850 90
2009-04-02 06:18:42 51°14.12 2°55.417 6 355 7.7 101850 90
2009-04-02 06:18:46 51°14.128 2°55.41 5.9 1 7.7 101850 90
2009-04-02 06:18:52 51°14.14 2°55.398 6.2 355 7.7 101840 90
2009-04-02 06:18:57 51°14.15 2°55.389 5.7 359 7.7 101840 90
2009-04-02 06:19:02 51°14.16 2°55.38 5.4 356 7.8 101840 90
2009-04-02 06:19:07 51°14.171 2°55.37 5.6 352 7.8 101840 90
2009-04-02 06:19:12 51°14.181 2°55.36 5.8 355 7.7 101840 90
2009-04-02 06:19:17 51°14.191 2°55.349 5.5 1 7.7 101840 90
2009-04-02 06:19:22 51°14.201 2°55.338 5.8 358 7.8 101850 90
2009-04-02 06:19:26 51°14.209 2°55.329 5.6 2 7.8 101850 90
2009-04-02 06:19:32 51°14.22 2°55.315 5.6 359 7.7 101840 90
2009-04-02 06:19:37 51°14.23 2°55.302 6.2 5 7.7 101840 90
2009-04-02 06:19:42 51°14.239 2°55.289 7.1 8 7.8 101850 90
2009-04-02 06:19:46 51°14.247 2°55.278 6.4 10 7.8 101850 90
2009-04-02 06:19:52 51°14.257 2°55.26 5.1 10 7.8 101850 90
2009-04-02 06:19:57 51°14.265 2°55.245 5.2 7 7.8 101850 90
2009-04-02 06:20:02 51°14.273 2°55.229 6.4 8 7.8 101840 90
2009-04-02 06:20:06 51°14.279 2°55.216 6.1 9 7.8 101840 90
2009-04-02 06:20:12 51°14.289 2°55.196 6 8 7.8 101850 90
2009-04-02 06:20:17 51°14.296 2°55.179 6.4 10 7.8 101850 90
2009-04-02 06:20:22 51°14.304 2°55.162 5.3 10 7.8 101850 90
2009-04-02 06:20:26 51°14.31 2°55.149 5.1 5 7.8 101850 90
2009-04-02 06:20:32 51°14.32 2°55.128 6.6 7 7.8 101850 90
2009-04-02 06:20:37 51°14.328 2°55.111 6.2 11 7.8 101850 90
2009-04-02 06:20:42 51°14.337 2°55.094 4.8 11 7.8 101850 90
2009-04-02 06:20:46 51°14.343 2°55.08 7.1 9 7.8 101850 90
2009-04-02 06:20:52 51°14.353 2°55.059 5.5 6 7.8 101840 90
2009-04-02 06:20:57 51°14.362 2°55.042 4.7 5 7.8 101840 90
2009-04-02 06:21:02 51°14.37 2°55.024 6.3 8 7.8 101850 90
2009-04-02 06:21:06 51°14.376 2°55.01 6.9 10 7.8 101850 90
2009-04-02 06:21:12 51°14.386 2°54.987 6.4 8 7.9 101840 90
2009-04-02 06:21:17 51°14.393 2°54.968 6.2 8 7.9 101840 90
2009-04-02 06:21:22 51°14.401 2°54.949 6.8 11 7.9 101840 90
2009-04-02 06:21:27 51°14.408 2°54.929 7.9 12 7.9 101840 90
2009-04-02 06:21:32 51°14.415 2°54.909 6.9 12 7.9 101840 90
2009-04-02 06:21:37 51°14.422 2°54.889 5.9 7 7.9 101840 90
2009-04-02 06:21:42 51°14.43 2°54.869 5.5 10 7.9 101850 90
2009-04-02 06:21:46 51°14.435 2°54.854 5 6 7.9 101850 90
2009-04-02 06:21:52 51°14.444 2°54.83 5.4 7 7.9 101850 90
2009-04-02 06:21:57 51°14.451 2°54.81 6.8 9 7.9 101850 90
2009-04-02 06:22:02 51°14.458 2°54.79 6.2 8 7.9 101850 90
2009-04-02 06:22:06 51°14.465 2°54.774 5.6 8 7.9 101850 90
2009-04-02 06:22:12 51°14.474 2°54.751 5.1 6 7.9 101850 90
2009-04-02 06:22:17 51°14.481 2°54.731 6.4 8 7.9 101850 90
2009-04-02 06:22:22 51°14.489 2°54.711 6.4 11 7.9 101850 90
2009-04-02 06:22:26 51°14.494 2°54.695 5.2 6 7.9 101850 90
2009-04-02 06:22:32 51°14.503 2°54.67 5.3 5 8 101850 90
2009-04-02 06:22:37 51°14.511 2°54.649 5.9 1 8 101850 90
2009-04-02 06:22:42 51°14.519 2°54.629 5.3 4 8 101850 90
2009-04-02 06:22:46 51°14.525 2°54.612 5.3 3 8 101850 90
2009-04-02 06:22:52 51°14.535 2°54.586 5.6 6 8 101850 90
2009-04-02 06:22:57 51°14.543 2°54.565 5.5 2 8 101850 90
2009-04-02 06:23:02 51°14.551 2°54.543 7.1 2 8 101840 90
2009-04-02 06:23:06 51°14.558 2°54.526 6.2 2 8 101840 90
2009-04-02 06:23:12 51°14.567 2°54.5 6.5 2 8 101850 90
2009-04-02 06:23:17 51°14.575 2°54.477 5.6 5 8 101850 90
2009-04-02 06:23:22 51°14.583 2°54.455 5.4 4 8 101850 90
2009-04-02 06:23:26 51°14.589 2°54.437 5.1 6 8 101850 90
2009-04-02 06:23:32 51°14.6 2°54.411 7.3 1 8 101850 90
2009-04-02 06:23:37 51°14.607 2°54.389 7.3 2 8 101850 90
2009-04-02 06:23:42 51°14.616 2°54.366 6.9 2 8.1 101850 90
2009-04-02 06:23:46 51°14.622 2°54.348 6.8 3 8.1 101850 90
2009-04-02 06:23:52 51°14.632 2°54.321 6.4 3 8.1 101840 90
2009-04-02 06:23:57 51°14.64 2°54.299 6.8 2 8.1 101840 90
2009-04-02 06:24:02 51°14.648 2°54.276 7.6 2 8.1 101850 90
2009-04-02 06:24:06 51°14.655 2°54.258 7 5 8.1 101850 90
2009-04-02 06:24:12 51°14.665 2°54.231 5.9 5 8.1 101850 90
2009-04-02 06:24:17 51°14.673 2°54.209 5.9 7 8.1 101850 90
2009-04-02 06:24:22 51°14.682 2°54.187 6 5 8.1 101850 90
2009-04-02 06:24:27 51°14.691 2°54.165 6.7 4 8.1 101850 90
2009-04-02 06:24:32 51°14.699 2°54.142 6.9 5 8.1 101850 90
2009-04-02 06:24:37 51°14.708 2°54.12 6.9 6 8.1 101850 90
2009-04-02 06:24:42 51°14.717 2°54.098 7.6 7 8.1 101850 90
2009-04-02 06:24:46 51°14.724 2°54.08 6.7 5 8.1 101850 90
2009-04-02 06:24:52 51°14.735 2°54.054 7.4 6 8.1 101850 90
2009-04-02 06:24:57 51°14.743 2°54.031 7.8 8 8.1 101850 90
2009-04-02 06:25:02 51°14.752 2°54.009 6.1 5 8.1 101840 91
2009-04-02 06:25:06 51°14.759 2°53.992 6.6 5 8.1 101840 91
2009-04-02 06:25:12 51°14.77 2°53.966 8.2 7 8.1 101840 90
2009-04-02 06:25:17 51°14.778 2°53.944 6.4 5 8.1 101840 90
2009-04-02 06:25:22 51°14.787 2°53.922 7.7 6 8.1 101850 91
2009-04-02 06:25:27 51°14.796 2°53.9 6.3 6 8.1 101850 91
2009-04-02 06:25:32 51°14.805 2°53.878 8.3 7 8.1 101850 91
2009-04-02 06:25:37 51°14.812 2°53.855 5.5 4 8.1 101850 91
2009-04-02 06:25:42 51°14.82 2°53.833 7.5 2 8.1 101850 91
2009-04-02 06:25:47 51°14.829 2°53.81 7.4 9 8.1 101850 91
2009-04-02 06:25:52 51°14.836 2°53.787 6.1 7 8.1 101840 90
2009-04-02 06:25:57 51°14.844 2°53.764 7.9 9 8.1 101840 90
2009-04-02 06:26:02 51°14.851 2°53.741 7.8 9 8.1 101850 91
2009-04-02 06:26:07 51°14.858 2°53.717 5.8 6 8.1 101850 91
2009-04-02 06:26:12 51°14.865 2°53.694 5.8 6 8.1 101850 90
2009-04-02 06:26:17 51°14.871 2°53.671 8.4 11 8.1 101850 90
2009-04-02 06:26:22 51°14.879 2°53.648 6 7 8.1 101840 91
2009-04-02 06:26:27 51°14.885 2°53.624 7.6 8 8.1 101840 91
2009-04-02 06:26:32 51°14.892 2°53.6 7.6 8 8.1 101850 91
2009-04-02 06:26:37 51°14.899 2°53.577 6 8 8.1 101850 91
2009-04-02 06:26:42 51°14.905 2°53.553 5.7 2 8.1 101850 91
2009-04-02 06:26:47 51°14.912 2°53.53 5.9 6 8.1 101850 91
2009-04-02 06:26:52 51°14.918 2°53.505 7.8 9 8.1 101850 91
2009-04-02 06:26:57 51°14.925 2°53.481 5.9 6 8.1 101850 91
2009-04-02 06:27:02 51°14.932 2°53.458 5.6 8 8.1 101850 91
2009-04-02 06:27:07 51°14.938 2°53.434 5.6 8 8.1 101850 91
2009-04-02 06:27:12 51°14.945 2°53.41 5.9 7 8.1 101860 91
2009-04-02 06:27:17 51°14.952 2°53.386 7.8 9 8.1 101860 91
2009-04-02 06:27:22 51°14.959 2°53.363 7.7 9 8 101840 91
2009-04-02 06:27:26 51°14.964 2°53.343 7.4 7 8 101840 91
2009-04-02 06:27:32 51°14.973 2°53.315 6.4 7 8.1 101850 91
2009-04-02 06:27:37 51°14.98 2°53.291 6.1 6 8.1 101850 91
2009-04-02 06:27:42 51°14.987 2°53.267 7.4 9 8.1 101850 91
2009-04-02 06:27:46 51°14.992 2°53.248 8 10 8.1 101850 91
2009-04-02 06:27:52 51°14.999 2°53.219 7.3 9 8.1 101850 91
2009-04-02 06:27:57 51°15.006 2°53.195 7.3 7 8.1 101850 91
2009-04-02 06:28:02 51°15.012 2°53.171 5.8 6 8 101850 91
2009-04-02 06:28:06 51°15.017 2°53.152 6.3 9 8 101850 91
2009-04-02 06:28:12 51°15.026 2°53.123 6.2 6 8 101850 91
2009-04-02 06:28:17 51°15.033 2°53.099 6.7 8 8 101850 91
2009-04-02 06:28:22 51°15.04 2°53.076 6 6 8 101860 91
2009-04-02 06:28:26 51°15.045 2°53.057 5.3 2 8 101860 91
2009-04-02 06:28:32 51°15.055 2°53.029 6.4 7 8.1 101860 91
2009-04-02 06:28:37 51°15.062 2°53.006 4.8 1 8.1 101860 91
2009-04-02 06:28:42 51°15.069 2°52.983 7 5 8 101850 91
2009-04-02 06:28:46 51°15.076 2°52.965 6.1 6 8 101850 91
2009-04-02 06:28:52 51°15.085 2°52.937 6.2 7 8 101850 91
2009-04-02 06:28:57 51°15.093 2°52.914 6.8 7 8 101850 91
2009-04-02 06:29:02 51°15.101 2°52.892 6.4 6 8.1 101850 91
2009-04-02 06:29:06 51°15.107 2°52.874 5.7 5 8.1 101850 91
2009-04-02 06:29:12 51°15.116 2°52.846 7.2 10 8.1 101860 91
2009-04-02 06:29:17 51°15.124 2°52.824 5.9 3 8.1 101860 91
2009-04-02 06:29:22 51°15.132 2°52.801 6.3 3 8.1 101850 91
2009-04-02 06:29:26 51°15.138 2°52.783 5.3 4 8.1 101850 91
2009-04-02 06:29:32 51°15.148 2°52.756 6.7 5 8 101850 91
2009-04-02 06:29:37 51°15.155 2°52.733 6.5 7 8 101850 91
2009-04-02 06:29:42 51°15.163 2°52.711 5.2 7 8 101860 91
2009-04-02 06:29:47 51°15.171 2°52.688 8 8 8 101860 91
2009-04-02 06:29:52 51°15.179 2°52.665 7.5 8 8 101850 91
2009-04-02 06:29:57 51°15.187 2°52.643 6.7 6 8 101850 91
2009-04-02 06:30:02 51°15.195 2°52.621 5.1 5 8.1 101850 91
2009-04-02 06:30:06 51°15.202 2°52.603 5.8 2 8.1 101850 91
2009-04-02 06:30:12 51°15.211 2°52.576 6.8 8 8 101850 91
2009-04-02 06:30:17 51°15.219 2°52.554 7.7 9 8 101850 91
2009-04-02 06:30:22 51°15.227 2°52.531 5.9 7 8 101850 91
2009-04-02 06:30:26 51°15.233 2°52.512 7.4 10 8 101850 91
2009-04-02 06:30:32 51°15.241 2°52.485 5.6 5 8 101850 91
2009-04-02 06:30:37 51°15.248 2°52.461 6.7 6 8 101850 91
2009-04-02 06:30:42 51°15.254 2°52.438 6.7 7 8 101850 91
2009-04-02 06:30:46 51°15.26 2°52.419 6.8 9 8 101850 91
2009-04-02 06:30:52 51°15.267 2°52.39 6.8 9 8 101850 91
2009-04-02 06:30:57 51°15.273 2°52.367 6.1 7 8 101850 91
2009-04-02 06:31:02 51°15.279 2°52.343 7.5 8 8 101860 91
2009-04-02 06:31:06 51°15.284 2°52.324 8.2 10 8 101860 91
2009-04-02 06:31:12 51°15.291 2°52.295 6 7 8 101850 91
2009-04-02 06:31:17 51°15.297 2°52.271 7.3 11 8 101850 91
2009-04-02 06:31:22 51°15.303 2°52.247 7.2 13 8 101860 91
2009-04-02 06:31:26 51°15.309 2°52.229 5.5 8 8 101860 91
2009-04-02 06:31:32 51°15.315 2°52.199 7.8 12 8 101860 91
2009-04-02 06:31:37 51°15.322 2°52.176 7.8 10 8 101860 91
2009-04-02 06:31:42 51°15.328 2°52.152 7.6 8 8 101860 91
2009-04-02 06:31:47 51°15.334 2°52.128 7.7 9 8 101860 91
2009-04-02 06:31:52 51°15.341 2°52.104 7 8 8 101860 91
2009-04-02 06:31:57 51°15.346 2°52.08 6.1 8 8 101860 91
2009-04-02 06:32:02 51°15.352 2°52.057 6.9 9 8 101850 91
2009-04-02 06:32:07 51°15.359 2°52.033 6.9 12 8 101850 91
2009-04-02 06:32:11 51°15.363 2°52.014 7.2 15 8 101860 91
2009-04-02 06:32:17 51°15.37 2°51.985 6.7 9 8 101860 91
2009-04-02 06:32:22 51°15.376 2°51.961 7.1 12 8 101840 91
2009-04-02 06:32:27 51°15.382 2°51.937 6.7 10 8 101840 91
2009-04-02 06:32:32 51°15.388 2°51.913 7.3 12 8 101850 91
2009-04-02 06:32:37 51°15.394 2°51.889 5.8 12 8 101850 91
2009-04-02 06:32:42 51°15.4 2°51.865 6.2 15 8 101850 91
2009-04-02 06:32:47 51°15.406 2°51.842 5.9 13 8 101850 91
2009-04-02 06:32:52 51°15.41 2°51.817 6.4 11 8 101850 91
2009-04-02 06:32:57 51°15.416 2°51.794 6.3 14 8 101850 91
2009-04-02 06:33:02 51°15.42 2°51.77 5.8 10 8 101850 91
2009-04-02 06:33:06 51°15.424 2°51.75 6.3 11 8 101850 91
2009-04-02 06:33:12 51°15.429 2°51.721 6.6 13 8 101860 91
2009-04-02 06:33:17 51°15.433 2°51.697 7 11 8 101860 91
2009-04-02 06:33:22 51°15.437 2°51.672 7 16 8 101860 91
2009-04-02 06:33:26 51°15.441 2°51.653 6.6 14 8 101860 91
2009-04-02 06:33:32 51°15.446 2°51.623 5.3 16 8 101860 91
2009-04-02 06:33:37 51°15.45 2°51.599 5.7 15 8 101860 91
2009-04-02 06:33:42 51°15.455 2°51.574 5.8 13 8 101850 91
2009-04-02 06:33:46 51°15.458 2°51.554 5.2 9 8 101850 91
2009-04-02 06:33:52 51°15.463 2°51.525 6.1 17 8 101850 91
2009-04-02 06:33:57 51°15.468 2°51.5 5.6 20 8 101850 91
2009-04-02 06:34:02 51°15.472 2°51.476 6.1 10 8 101860 91
2009-04-02 06:34:06 51°15.476 2°51.456 6.5 10 8 101860 91
2009-04-02 06:34:12 51°15.481 2°51.426 6.6 12 8 101850 91
2009-04-02 06:34:17 51°15.485 2°51.402 6.4 11 8 101850 91
2009-04-02 06:34:22 51°15.49 2°51.377 5.8 15 8 101860 91
2009-04-02 06:34:26 51°15.494 2°51.357 6.2 10 8 101860 91
2009-04-02 06:34:32 51°15.499 2°51.327 6.7 10 8 101860 91
2009-04-02 06:34:37 51°15.504 2°51.302 6.9 18 8 101860 91
2009-04-02 06:34:42 51°15.509 2°51.278 5.7 17 8 101860 91
2009-04-02 06:34:46 51°15.513 2°51.258 6.6 11 8 101860 91
2009-04-02 06:34:52 51°15.518 2°51.228 6.9 8 8 101860 91
2009-04-02 06:34:57 51°15.523 2°51.203 6.4 11 8 101860 91
2009-04-02 06:35:02 51°15.527 2°51.178 5.8 13 8 101850 91
2009-04-02 06:35:06 51°15.53 2°51.158 5.8 17 8 101850 91
2009-04-02 06:35:12 51°15.534 2°51.128 5.3 17 8 101860 91
2009-04-02 06:35:17 51°15.538 2°51.103 5.7 11 8 101860 91
2009-04-02 06:35:22 51°15.54 2°51.077 5 12 8 101860 91
2009-04-02 06:35:26 51°15.544 2°51.057 5.6 11 8 101860 91
2009-04-02 06:35:32 51°15.547 2°51.026 5.8 13 8 101860 91
2009-04-02 06:35:37 51°15.551 2°51.001 5.3 8 8 101860 91
2009-04-02 06:35:42 51°15.555 2°50.975 5.6 13 8 101850 91
2009-04-02 06:35:47 51°15.559 2°50.95 5.7 12 8 101850 91
2009-04-02 06:35:52 51°15.563 2°50.925 6.9 15 8 101860 91
2009-04-02 06:35:57 51°15.568 2°50.901 6.7 13 8 101860 91
2009-04-02 06:36:02 51°15.573 2°50.876 6.2 11 8 101850 91
2009-04-02 06:36:07 51°15.578 2°50.851 8.5 12 8 101850 91
2009-04-02 06:36:12 51°15.585 2°50.828 6.9 10 8 101860 91
2009-04-02 06:36:17 51°15.59 2°50.803 7 9 8 101860 91
2009-04-02 06:36:22 51°15.597 2°50.78 6.6 9 8 101860 91
2009-04-02 06:36:27 51°15.603 2°50.757 8.6 9 8 101860 91
2009-04-02 06:36:32 51°15.61 2°50.733 8.5 12 8 101860 91
2009-04-02 06:36:37 51°15.617 2°50.709 7.1 7 8 101860 91
2009-04-02 06:36:42 51°15.624 2°50.686 6.6 11 8 101850 91
2009-04-02 06:36:47 51°15.631 2°50.662 7.7 9 8 101850 91
2009-04-02 06:36:51 51°15.638 2°50.644 7.3 7 8 101860 91
2009-04-02 06:36:57 51°15.646 2°50.616 8.3 9 8 101860 91
2009-04-02 06:37:02 51°15.654 2°50.592 7.2 10 8 101850 91
2009-04-02 06:37:07 51°15.661 2°50.569 8.4 10 8 101850 91
2009-04-02 06:37:12 51°15.669 2°50.545 7 9 8 101850 91
2009-04-02 06:37:17 51°15.677 2°50.522 8.3 10 8 101850 91
2009-04-02 06:37:22 51°15.684 2°50.499 8.9 11 8 101850 91
2009-04-02 06:37:27 51°15.692 2°50.476 5 7 8 101850 91
2009-04-02 06:37:32 51°15.7 2°50.452 6.2 7 8 101850 91
2009-04-02 06:37:37 51°15.708 2°50.43 8.3 12 8 101850 91
2009-04-02 06:37:42 51°15.715 2°50.406 7.3 12 8 101850 91
2009-04-02 06:37:47 51°15.723 2°50.383 7.5 8 8 101850 91
2009-04-02 06:37:51 51°15.729 2°50.364 7.1 7 8 101850 91
2009-04-02 06:37:57 51°15.738 2°50.335 6.8 10 8 101850 91
2009-04-02 06:38:02 51°15.744 2°50.311 7.2 8 8 101860 91
2009-04-02 06:38:07 51°15.751 2°50.288 6 8 8 101860 91
2009-04-02 06:38:12 51°15.757 2°50.263 7.7 9 8 101850 91
2009-04-02 06:38:17 51°15.765 2°50.239 6.4 10 8 101850 91
2009-04-02 06:38:22 51°15.77 2°50.215 7.3 12 8 101850 91
2009-04-02 06:38:27 51°15.777 2°50.192 6.5 10 8 101850 91
2009-04-02 06:38:32 51°15.783 2°50.167 6.3 13 8 101850 92
2009-04-02 06:38:37 51°15.789 2°50.143 6.5 14 8 101850 92
2009-04-02 06:38:42 51°15.795 2°50.119 6.6 10 8 101850 92
2009-04-02 06:38:47 51°15.8 2°50.094 6.4 13 8 101850 92
2009-04-02 06:38:52 51°15.806 2°50.07 6 13 8 101850 92
2009-04-02 06:38:57 51°15.811 2°50.046 5.4 14 8 101850 92
2009-04-02 06:39:02 51°15.816 2°50.021 6.8 12 8 101850 92
2009-04-02 06:39:07 51°15.821 2°49.997 5.9 11 8 101850 92
2009-04-02 06:39:11 51°15.825 2°49.978 5.8 11 8 101860 92
2009-04-02 06:39:17 51°15.831 2°49.948 6.8 14 8 101860 92
2009-04-02 06:39:22 51°15.836 2°49.924 6.4 17 8 101850 92
2009-04-02 06:39:27 51°15.841 2°49.9 6.6 13 8 101850 92
2009-04-02 06:39:32 51°15.846 2°49.875 6.3 16 8 101860 92
2009-04-02 06:39:37 51°15.851 2°49.851 7.3 14 8 101860 92
2009-04-02 06:39:42 51°15.856 2°49.827 5.9 14 8 101860 92
2009-04-02 06:39:47 51°15.86 2°49.802 6.2 19 8 101860 92
2009-04-02 06:39:52 51°15.865 2°49.778 6.2 18 8 101860 92
2009-04-02 06:39:57 51°15.869 2°49.753 6 18 8 101860 92
2009-04-02 06:40:02 51°15.873 2°49.728 6.3 17 8 101860 92
2009-04-02 06:40:07 51°15.876 2°49.704 6.7 16 8 101860 92
2009-04-02 06:40:11 51°15.879 2°49.684 3.3 16 8 101860 92
2009-04-02 06:40:17 51°15.882 2°49.654 5.9 13 8 101860 92
2009-04-02 06:40:22 51°15.884 2°49.629 5.2 17 8 101860 92
2009-04-02 06:40:27 51°15.887 2°49.604 4.6 14 8 101860 92
2009-04-02 06:40:32 51°15.889 2°49.578 5.7 14 8 101860 92
2009-04-02 06:40:37 51°15.892 2°49.553 5.5 20 8 101860 92
2009-04-02 06:40:42 51°15.894 2°49.527 6 21 8 101860 92
2009-04-02 06:40:47 51°15.896 2°49.502 5.9 20 8 101860 92
2009-04-02 06:40:52 51°15.898 2°49.477 4.6 11 8 101860 92
2009-04-02 06:40:57 51°15.899 2°49.451 5 19 8 101860 92
2009-04-02 06:41:02 51°15.901 2°49.426 5.9 19 8 101860 92
2009-04-02 06:41:07 51°15.903 2°49.401 6.1 22 8 101860 92
2009-04-02 06:41:11 51°15.905 2°49.38 2.6 18 8 101860 92
2009-04-02 06:41:17 51°15.907 2°49.349 6.5 19 8 101860 92
2009-04-02 06:41:22 51°15.909 2°49.324 5.2 19 8 101870 92
2009-04-02 06:41:27 51°15.911 2°49.298 5.6 19 8 101870 92
2009-04-02 06:41:32 51°15.914 2°49.273 5.7 18 8 101860 92
2009-04-02 06:41:37 51°15.915 2°49.248 5.3 20 8 101860 92
2009-04-02 06:41:42 51°15.918 2°49.222 5.7 18 8 101860 92
2009-04-02 06:41:47 51°15.92 2°49.196 6 15 8 101860 92
2009-04-02 06:41:52 51°15.923 2°49.171 5.8 21 8 101860 92
2009-04-02 06:41:57 51°15.925 2°49.146 5 15 8 101860 92
2009-04-02 06:42:02 51°15.927 2°49.12 5.8 20 8 101860 92
2009-04-02 06:42:07 51°15.929 2°49.095 6.1 18 8 101860 92
2009-04-02 06:42:12 51°15.931 2°49.07 4.9 18 8 101870 92
2009-04-02 06:42:17 51°15.933 2°49.044 5.3 21 8 101870 92
2009-04-02 06:42:22 51°15.935 2°49.019 4.7 19 8 101860 92
2009-04-02 06:42:27 51°15.937 2°48.993 4.5 14 8 101860 92
2009-04-02 06:42:31 51°15.938 2°48.972 6.2 21 8 101870 92
2009-04-02 06:42:37 51°15.941 2°48.942 5.3 18 8 101870 92
2009-04-02 06:42:42 51°15.942 2°48.916 5.6 18 8 101870 92
2009-04-02 06:42:47 51°15.944 2°48.891 5.6 18 8 101870 92
2009-04-02 06:42:52 51°15.945 2°48.865 6.9 20 8 101860 92
2009-04-02 06:42:57 51°15.948 2°48.84 5.5 17 8 101860 92
2009-04-02 06:43:02 51°15.95 2°48.814 5.1 17 8 101860 92
2009-04-02 06:43:07 51°15.951 2°48.789 5.4 22 8 101860 92
2009-04-02 06:43:12 51°15.953 2°48.763 5.5 14 8 101860 92
2009-04-02 06:43:17 51°15.956 2°48.738 6.2 22 8 101860 92
2009-04-02 06:43:22 51°15.957 2°48.712 6.1 20 8 101860 92
2009-04-02 06:43:27 51°15.959 2°48.686 5.9 23 8 101860 92
2009-04-02 06:43:31 51°15.961 2°48.666 6.1 20 8 101860 92
2009-04-02 06:43:37 51°15.964 2°48.636 4.8 14 8 101860 92
2009-04-02 06:43:42 51°15.965 2°48.61 5.6 12 8 101860 92
2009-04-02 06:43:47 51°15.969 2°48.585 5.2 15 8 101860 92
2009-04-02 06:43:52 51°15.969 2°48.56 6.9 20 8 101860 92
2009-04-02 06:43:57 51°15.973 2°48.535 4.3 15 8 101860 92
2009-04-02 06:44:02 51°15.975 2°48.509 6.4 17 8 101870 92
2009-04-02 06:44:07 51°15.977 2°48.484 5.8 10 8 101870 92
2009-04-02 06:44:12 51°15.979 2°48.458 6.4 19 8 101870 92
2009-04-02 06:44:17 51°15.982 2°48.433 5 20 8 101870 92
2009-04-02 06:44:22 51°15.984 2°48.407 5.8 20 8 101860 92
2009-04-02 06:44:27 51°15.987 2°48.382 5.6 19 8 101860 92
2009-04-02 06:44:31 51°15.988 2°48.362 5.6 18 7.9 101860 92
2009-04-02 06:44:37 51°15.991 2°48.332 4.8 13 7.9 101860 92
2009-04-02 06:44:42 51°15.993 2°48.306 5.5 20 7.9 101860 92
2009-04-02 06:44:47 51°15.996 2°48.281 5.5 19 7.9 101860 92
2009-04-02 06:44:52 51°15.997 2°48.255 5.3 18 8 101860 92
2009-04-02 06:44:57 51°16 2°48.23 5.1 16 8 101860 92
2009-04-02 06:45:02 51°16.002 2°48.204 5.5 19 8 101860 92
2009-04-02 06:45:07 51°16.003 2°48.179 6.1 16 8 101860 92
2009-04-02 06:45:12 51°16.005 2°48.153 5.4 14 7.9 101860 92
2009-04-02 06:45:17 51°16.008 2°48.128 4.7 21 7.9 101860 92
2009-04-02 06:45:22 51°16.008 2°48.102 5.8 22 8 101860 92
2009-04-02 06:45:27 51°16.011 2°48.077 5.9 20 8 101860 92
2009-04-02 06:45:32 51°16.013 2°48.051 5.6 20 8 101860 92
2009-04-02 06:45:37 51°16.016 2°48.026 5.4 23 8 101860 92
2009-04-02 06:45:42 51°16.017 2°48 5.5 25 8 101860 92
2009-04-02 06:45:47 51°16.02 2°47.974 5 18 8 101860 92
2009-04-02 06:45:51 51°16.021 2°47.953 5.2 19 8 101850 92
2009-04-02 06:45:57 51°16.024 2°47.922 4.1 21 8 101850 92
2009-04-02 06:46:02 51°16.026 2°47.897 4.7 23 8 101860 92
2009-04-02 06:46:07 51°16.027 2°47.871 4.8 17 8 101860 92
2009-04-02 06:46:12 51°16.03 2°47.846 5.1 16 8 101860 92
2009-04-02 06:46:17 51°16.031 2°47.82 5.3 18 8 101860 92
2009-04-02 06:46:22 51°16.033 2°47.794 5.9 18 7.9 101860 92
2009-04-02 06:46:27 51°16.036 2°47.769 4.9 16 7.9 101860 92
2009-04-02 06:46:32 51°16.037 2°47.743 5.1 21 7.9 101860 92
2009-04-02 06:46:37 51°16.04 2°47.717 6.1 21 7.9 101860 92
2009-04-02 06:46:42 51°16.042 2°47.691 5.2 19 7.9 101860 92
2009-04-02 06:46:47 51°16.045 2°47.666 6.2 21 7.9 101860 92
2009-04-02 06:46:51 51°16.047 2°47.645 5.6 25 7.9 101860 92
2009-04-02 06:46:57 51°16.05 2°47.614 5 21 7.9 101860 92
2009-04-02 06:47:02 51°16.051 2°47.588 6.2 14 8 101860 92
2009-04-02 06:47:07 51°16.055 2°47.562 5.3 13 8 101860 92
2009-04-02 06:47:12 51°16.057 2°47.536 5.5 13 8 101860 92
2009-04-02 06:47:17 51°16.06 2°47.511 5.4 18 8 101860 92
2009-04-02 06:47:22 51°16.061 2°47.485 4.7 19 7.9 101860 92
2009-04-02 06:47:27 51°16.064 2°47.46 6.9 23 7.9 101860 92
2009-04-02 06:47:32 51°16.067 2°47.434 4.8 17 8 101860 92
2009-04-02 06:47:37 51°16.069 2°47.409 5.6 19 8 101860 92
2009-04-02 06:47:42 51°16.072 2°47.383 5.3 21 8 101860 92
2009-04-02 06:47:47 51°16.074 2°47.358 6 16 8 101860 92
2009-04-02 06:47:52 51°16.077 2°47.332 6.7 22 7.9 101860 92
2009-04-02 06:47:57 51°16.079 2°47.307 5.8 19 7.9 101860 92
2009-04-02 06:48:02 51°16.081 2°47.281 5.9 15 8 101860 92
2009-04-02 06:48:07 51°16.084 2°47.256 5.4 15 8 101860 92
2009-04-02 06:48:12 51°16.086 2°47.231 5.4 15 8 101860 92
2009-04-02 06:48:17 51°16.088 2°47.205 6.6 22 8 101860 92
2009-04-02 06:48:22 51°16.092 2°47.18 5.6 21 8 101860 92
2009-04-02 06:48:27 51°16.092 2°47.154 5.5 18 8 101860 92
2009-04-02 06:48:32 51°16.097 2°47.13 5.9 18 8 101870 92
2009-04-02 06:48:37 51°16.097 2°47.104 5.9 13 8 101870 92
2009-04-02 06:48:42 51°16.101 2°47.079 7 19 8 101870 92
2009-04-02 06:48:47 51°16.103 2°47.054 5.6 19 8 101870 92
2009-04-02 06:48:52 51°16.105 2°47.028 6.3 17 8 101870 92
2009-04-02 06:48:57 51°16.109 2°47.003 5.3 17 8 101870 92
2009-04-02 06:49:02 51°16.111 2°46.977 6.9 21 8 101860 92
2009-04-02 06:49:07 51°16.114 2°46.952 5.4 20 8 101860 92
2009-04-02 06:49:11 51°16.115 2°46.931 6.9 18 8 101860 92
2009-04-02 06:49:17 51°16.119 2°46.901 4.8 22 8 101860 92
2009-04-02 06:49:22 51°16.121 2°46.875 5.4 19 8 101860 92
2009-04-02 06:49:27 51°16.124 2°46.85 3.5 20 8 101860 92
2009-04-02 06:49:32 51°16.123 2°46.825 6.3 26 8 101860 92
2009-04-02 06:49:37 51°16.125 2°46.8 4.1 26 8 101860 92
2009-04-02 06:49:42 51°16.122 2°46.775 6.3 29 8 101860 92
2009-04-02 06:49:47 51°16.124 2°46.75 3.5 28 8 101860 92
2009-04-02 06:49:52 51°16.12 2°46.725 3.3 23 8 101860 92
2009-04-02 06:49:57 51°16.118 2°46.701 3.2 25 8 101860 92
2009-04-02 06:50:02 51°16.116 2°46.676 2.9 37 8 101870 92
2009-04-02 06:50:07 51°16.11 2°46.653 2.2 21 8 101870 92
2009-04-02 06:50:11 51°16.106 2°46.634 2.6 40 8 101860 92
2009-04-02 06:50:17 51°16.101 2°46.606 2.8 52 8 101860 92
2009-04-02 06:50:22 51°16.094 2°46.584 1.5 22 8 101870 92
2009-04-02 06:50:27 51°16.088 2°46.561 2.3 51 8 101870 92
2009-04-02 06:50:32 51°16.083 2°46.538 2 27 8 101870 92
2009-04-02 06:50:37 51°16.074 2°46.517 2.2 41 8 101870 92
2009-04-02 06:50:42 51°16.069 2°46.493 2.7 27 8 101870 92
2009-04-02 06:50:47 51°16.062 2°46.472 1.7 56 8 101870 92
2009-04-02 06:50:52 51°16.054 2°46.45 2.9 39 8 101870 92
2009-04-02 06:50:57 51°16.049 2°46.427 2.2 56 8 101870 92
2009-04-02 06:51:02 51°16.04 2°46.408 2 45 8 101870 92
2009-04-02 06:51:07 51°16.035 2°46.384 2.2 54 8 101870 92
2009-04-02 06:51:12 51°16.026 2°46.364 2.1 20 8 101870 92
2009-04-02 06:51:17 51°16.018 2°46.342 2.2 31 8 101870 92
2009-04-02 06:51:22 51°16.012 2°46.32 1.9 21 8 101870 92
2009-04-02 06:51:27 51°16.003 2°46.299 2.1 44 8 101870 92
2009-04-02 06:51:31 51°15.997 2°46.281 2.4 26 8 101870 92
2009-04-02 06:51:37 51°15.988 2°46.256 1.5 59 8 101870 92
2009-04-02 06:51:42 51°15.979 2°46.235 1.5 40 8 101870 92
2009-04-02 06:51:47 51°15.973 2°46.212 1.8 51 8 101870 92
2009-04-02 06:51:52 51°15.964 2°46.193 1.5 22 8 101870 92
2009-04-02 06:51:57 51°15.956 2°46.171 2.1 77 8 101870 92
2009-04-02 06:52:02 51°15.95 2°46.148 1.9 26 8 101870 92
2009-04-02 06:52:06 51°15.943 2°46.133 1.5 43 8 101870 92
2009-04-02 06:52:12 51°15.933 2°46.108 2.1 26 8.1 101870 92
2009-04-02 06:52:17 51°15.929 2°46.085 1.8 51 8.1 101870 92
2009-04-02 06:52:22 51°15.92 2°46.065 1.7 43 8.1 101860 92
2009-04-02 06:52:26 51°15.916 2°46.047 1.1 54 8.1 101860 92
2009-04-02 06:52:32 51°15.906 2°46.021 1.6 34 8.1 101870 92
2009-04-02 06:52:37 51°15.902 2°45.998 2 51 8.1 101870 92
2009-04-02 06:52:42 51°15.893 2°45.978 1.2 37 8.1 101870 92
2009-04-02 06:52:47 51°15.888 2°45.954 3.3 58 8.1 101870 92
2009-04-02 06:52:52 51°15.881 2°45.933 2.1 21 8.1 101870 92
2009-04-02 06:52:57 51°15.874 2°45.911 3.3 40 8.1 101870 92
2009-04-02 06:53:02 51°15.869 2°45.888 2.3 24 8.1 101870 92
2009-04-02 06:53:07 51°15.861 2°45.867 3 51 8.1 101870 92
2009-04-02 06:53:12 51°15.856 2°45.844 2.4 21 8.1 101870 92
2009-04-02 06:53:17 51°15.848 2°45.823 2.1 29 8.1 101870 92
2009-04-02 06:53:22 51°15.843 2°45.799 1.9 42 8.1 101870 92
2009-04-02 06:53:26 51°15.838 2°45.781 1.7 53 8.1 101870 92
2009-04-02 06:53:32 51°15.83 2°45.754 2.2 40 8.1 101870 92
2009-04-02 06:53:37 51°15.824 2°45.73 2 39 8.1 101870 92
2009-04-02 06:53:42 51°15.818 2°45.707 1.5 27 8.1 101860 92
2009-04-02 06:53:47 51°15.812 2°45.684 3.1 41 8.1 101860 92
2009-04-02 06:53:52 51°15.805 2°45.662 3.2 38 8.1 101870 92
2009-04-02 06:53:57 51°15.8 2°45.638 3.3 50 8.1 101870 92
2009-04-02 06:54:02 51°15.793 2°45.616 3.4 40 8.1 101870 92
2009-04-02 06:54:06 51°15.789 2°45.597 3.1 50 8.1 101870 92
2009-04-02 06:54:12 51°15.782 2°45.57 2.6 27 8.1 101870 92
2009-04-02 06:54:17 51°15.775 2°45.547 2.9 40 8.1 101870 92
2009-04-02 06:54:22 51°15.771 2°45.523 2.2 20 8.1 101860 92
2009-04-02 06:54:26 51°15.766 2°45.505 2.2 56 8.1 101860 92
2009-04-02 06:54:32 51°15.758 2°45.478 2.1 28 8.1 101870 92
2009-04-02 06:54:37 51°15.755 2°45.454 2 43 8.1 101870 92
2009-04-02 06:54:42 51°15.749 2°45.432 1.9 41 8.1 101860 92
2009-04-02 06:54:46 51°15.745 2°45.413 3.1 31 8.1 101860 92
2009-04-02 06:54:52 51°15.742 2°45.383 2.2 37 8.1 101870 92
2009-04-02 06:54:57 51°15.738 2°45.36 4.1 26 8.1 101870 92
2009-04-02 06:55:02 51°15.735 2°45.336 4.4 27 8.1 101860 92
2009-04-02 06:55:07 51°15.733 2°45.312 3.7 31 8.1 101860 92
2009-04-02 06:55:12 51°15.731 2°45.287 4.5 16 8.1 101870 92
2009-04-02 06:55:17 51°15.73 2°45.262 3.6 23 8.1 101870 92
2009-04-02 06:55:22 51°15.729 2°45.237 5 26 8.1 101860 92
2009-04-02 06:55:26 51°15.729 2°45.217 3.8 27 8.1 101860 92
2009-04-02 06:55:32 51°15.729 2°45.187 4.3 23 8.1 101870 92
2009-04-02 06:55:37 51°15.731 2°45.162 6.5 23 8.1 101870 92
2009-04-02 06:55:42 51°15.732 2°45.136 5.7 18 8.1 101860 92
2009-04-02 06:55:46 51°15.733 2°45.116 6.7 21 8.1 101860 92
2009-04-02 06:55:52 51°15.738 2°45.086 4.9 12 8.1 101860 92
2009-04-02 06:55:57 51°15.741 2°45.061 6.7 16 8.1 101860 92
2009-04-02 06:56:02 51°15.748 2°45.038 6.3 14 8.1 101860 92
2009-04-02 06:56:06 51°15.751 2°45.018 7.8 9 8.1 101860 92
2009-04-02 06:56:12 51°15.76 2°44.99 6.9 10 8.1 101860 92
2009-04-02 06:56:17 51°15.766 2°44.967 9.5 12 8.1 101860 92
2009-04-02 06:56:22 51°15.774 2°44.944 9.5 13 8.1 101860 92
2009-04-02 06:56:26 51°15.781 2°44.926 7.2 7 8.1 101860 92
2009-04-02 06:56:32 51°15.79 2°44.899 7.4 9 8.1 101860 92
2009-04-02 06:56:37 51°15.798 2°44.877 6.9 7 8.1 101860 92
2009-04-02 06:56:42 51°15.807 2°44.855 8.2 8 8.1 101850 92
2009-04-02 06:56:46 51°15.814 2°44.837 8.6 8 8.1 101850 92
2009-04-02 06:56:52 51°15.826 2°44.812 9.2 7 8 101850 92
2009-04-02 06:56:57 51°15.835 2°44.79 7.2 7 8 101850 92
2009-04-02 06:57:02 51°15.846 2°44.769 7.5 6 8 101860 92
2009-04-02 06:57:06 51°15.855 2°44.754 7.2 3 8 101860 92
2009-04-02 06:57:12 51°15.867 2°44.729 8.1 7 8 101860 92
2009-04-02 06:57:17 51°15.879 2°44.711 9 4 8 101860 92
2009-04-02 06:57:22 51°15.89 2°44.691 8.4 1 8 101850 92
2009-04-02 06:57:27 51°15.903 2°44.673 7.8 359 8 101850 92
2009-04-02 06:57:32 51°15.914 2°44.654 8.4 3 8 101840 92
2009-04-02 06:57:37 51°15.927 2°44.636 9.2 -999 8 101840 92
2009-04-02 06:57:42 51°15.939 2°44.618 9 359 8 101850 92
2009-04-02 06:57:46 51°15.948 2°44.603 9 -999 8 101850 92
2009-04-02 06:57:52 51°15.963 2°44.581 9 3 8 101860 92
2009-04-02 06:57:57 51°15.975 2°44.563 7.7 6 8 101860 92
2009-04-02 06:58:02 51°15.987 2°44.545 8.9 4 8 101850 92
2009-04-02 06:58:06 51°15.997 2°44.531 8.7 6 8 101850 92
2009-04-02 06:58:12 51°16.011 2°44.509 7.9 4 8 101850 92
2009-04-02 06:58:17 51°16.023 2°44.491 9.7 3 8 101850 92
2009-04-02 06:58:22 51°16.036 2°44.473 10.1 10 8 101840 92
2009-04-02 06:58:26 51°16.045 2°44.458 9.7 1 8 101840 92
2009-04-02 06:58:32 51°16.06 2°44.436 8.9 4 8 101860 92
2009-04-02 06:58:37 51°16.072 2°44.417 9.4 3 8 101860 92
2009-04-02 06:58:42 51°16.085 2°44.4 8 360 8 101860 92
2009-04-02 06:58:46 51°16.094 2°44.384 8.8 7 8 101860 92
2009-04-02 06:58:52 51°16.11 2°44.364 8 2 8 101850 92
2009-04-02 06:58:57 51°16.121 2°44.345 9.2 2 8 101850 92
2009-04-02 06:59:02 51°16.134 2°44.328 8.1 -999 8 101840 92
2009-04-02 06:59:06 51°16.144 2°44.314 8.7 5 8 101840 92
2009-04-02 06:59:12 51°16.159 2°44.292 8.5 2 8 101860 92
2009-04-02 06:59:17 51°16.171 2°44.275 8.4 5 8 101860 92
2009-04-02 06:59:22 51°16.184 2°44.258 9.9 4 8 101850 92
2009-04-02 06:59:27 51°16.196 2°44.241 10.9 1 8 101850 92
2009-04-02 06:59:32 51°16.208 2°44.223 9.8 3 7.9 101860 92
2009-04-02 06:59:37 51°16.221 2°44.206 8.7 8 7.9 101860 92
2009-04-02 06:59:42 51°16.233 2°44.188 8.3 1 7.9 101850 92
2009-04-02 06:59:46 51°16.244 2°44.174 7.8 4 7.9 101850 92
2009-04-02 06:59:52 51°16.259 2°44.153 9.4 5 7.9 101860 92
2009-04-02 06:59:57 51°16.271 2°44.136 8.8 2 7.9 101860 92
2009-04-02 07:00:02 51°16.283 2°44.117 8.9 2 7.9 101840 92
2009-04-02 07:00:06 51°16.293 2°44.103 9 3 7.9 101840 92
2009-04-02 07:00:12 51°16.308 2°44.082 8.7 3 7.9 101860 92
2009-04-02 07:00:17 51°16.32 2°44.064 7 4 7.9 101860 92
2009-04-02 07:00:22 51°16.333 2°44.047 8.9 3 8 101850 92
2009-04-02 07:00:27 51°16.345 2°44.029 9.6 1 8 101850 92
2009-04-02 07:00:32 51°16.358 2°44.012 8.2 5 7.9 101840 92
2009-04-02 07:00:37 51°16.371 2°43.995 8.3 2 7.9 101840 92
2009-04-02 07:00:42 51°16.384 2°43.978 10.2 6 7.9 101850 92
2009-04-02 07:00:47 51°16.396 2°43.959 8.5 6 7.9 101850 92
2009-04-02 07:00:52 51°16.408 2°43.942 9.1 5 7.9 101850 92
2009-04-02 07:00:57 51°16.421 2°43.924 7.5 6 7.9 101850 92
2009-04-02 07:01:02 51°16.433 2°43.906 8.2 5 7.9 101850 92
2009-04-02 07:01:06 51°16.443 2°43.892 10.2 6 7.9 101850 92
2009-04-02 07:01:12 51°16.458 2°43.869 9.1 6 8 101850 92
2009-04-02 07:01:17 51°16.47 2°43.852 6.6 5 8 101850 92
2009-04-02 07:01:22 51°16.481 2°43.832 8.1 5 7.9 101850 92
2009-04-02 07:01:27 51°16.494 2°43.816 7.2 3 7.9 101850 92
2009-04-02 07:01:32 51°16.506 2°43.797 8.6 3 7.9 101850 92
2009-04-02 07:01:37 51°16.518 2°43.779 6.9 3 7.9 101850 92
2009-04-02 07:01:42 51°16.53 2°43.76 9 4 7.9 101860 92
2009-04-02 07:01:47 51°16.542 2°43.742 8.5 4 7.9 101860 92
2009-04-02 07:01:52 51°16.554 2°43.723 8.8 3 7.9 101850 92
2009-04-02 07:01:57 51°16.566 2°43.705 8.5 2 7.9 101850 92
2009-04-02 07:02:02 51°16.578 2°43.688 9.2 6 8 101860 92
2009-04-02 07:02:06 51°16.588 2°43.672 7.9 2 8 101860 92
2009-04-02 07:02:12 51°16.602 2°43.65 8.3 3 7.9 101850 92
2009-04-02 07:02:17 51°16.614 2°43.631 8.3 3 7.9 101850 92
2009-04-02 07:02:22 51°16.626 2°43.613 10.5 3 7.9 101850 92
2009-04-02 07:02:26 51°16.636 2°43.598 7.6 2 7.9 101850 92
2009-04-02 07:02:32 51°16.65 2°43.577 9.1 1 7.9 101860 92
2009-04-02 07:02:37 51°16.662 2°43.558 8.2 5 7.9 101860 92
2009-04-02 07:02:42 51°16.675 2°43.541 7.6 3 7.9 101850 92
2009-04-02 07:02:47 51°16.687 2°43.522 7.6 6 7.9 101850 92
2009-04-02 07:02:52 51°16.699 2°43.504 8.2 359 7.9 101860 92
2009-04-02 07:02:57 51°16.711 2°43.487 8.8 2 7.9 101860 92
2009-04-02 07:03:02 51°16.724 2°43.468 10.3 2 7.9 101860 92
2009-04-02 07:03:06 51°16.733 2°43.454 8.4 2 7.9 101860 92
2009-04-02 07:03:12 51°16.747 2°43.432 10.5 -999 7.9 101860 92
2009-04-02 07:03:17 51°16.76 2°43.414 8.8 3 7.9 101860 92
2009-04-02 07:03:22 51°16.772 2°43.396 8.8 3 7.9 101860 92
2009-04-02 07:03:26 51°16.781 2°43.381 10.7 1 7.9 101860 92
2009-04-02 07:03:32 51°16.795 2°43.36 8 4 7.9 101850 92
2009-04-02 07:03:37 51°16.807 2°43.341 8.1 -999 7.9 101850 92
2009-04-02 07:03:42 51°16.819 2°43.324 7.8 -999 7.9 101860 92
2009-04-02 07:03:47 51°16.831 2°43.305 8.7 6 7.9 101860 92
2009-04-02 07:03:52 51°16.843 2°43.288 9 1 7.9 101860 92
2009-04-02 07:03:57 51°16.855 2°43.269 8.9 3 7.9 101860 92
2009-04-02 07:04:02 51°16.867 2°43.251 9.8 5 7.9 101850 92
2009-04-02 07:04:06 51°16.876 2°43.236 8.7 2 7.9 101850 92
2009-04-02 07:04:12 51°16.891 2°43.214 10.2 2 7.9 101870 92
2009-04-02 07:04:17 51°16.903 2°43.195 8.5 4 7.9 101870 92
2009-04-02 07:04:22 51°16.914 2°43.176 9.3 4 7.9 101870 92
2009-04-02 07:04:26 51°16.924 2°43.161 9.6 7 7.9 101870 92
2009-04-02 07:04:32 51°16.938 2°43.138 6.5 7 7.9 101870 92
2009-04-02 07:04:37 51°16.95 2°43.119 9.6 2 7.9 101870 92
2009-04-02 07:04:42 51°16.962 2°43.102 8 5 7.9 101850 92
2009-04-02 07:04:47 51°16.973 2°43.083 8.3 4 7.9 101850 92
2009-04-02 07:04:52 51°16.985 2°43.064 8.1 4 7.9 101860 92
2009-04-02 07:04:57 51°16.997 2°43.045 9.6 7 7.9 101860 92
2009-04-02 07:05:02 51°17.008 2°43.026 7.1 3 7.9 101860 92
2009-04-02 07:05:07 51°17.02 2°43.007 8 1 7.9 101860 92
2009-04-02 07:05:12 51°17.032 2°42.988 8.3 1 7.9 101860 92
2009-04-02 07:05:17 51°17.043 2°42.969 7.6 5 7.9 101860 92
2009-04-02 07:05:22 51°17.055 2°42.951 8.9 2 7.9 101870 92
2009-04-02 07:05:26 51°17.064 2°42.935 8.3 5 7.9 101870 92
2009-04-02 07:05:32 51°17.077 2°42.912 8.5 7 7.9 101870 92
2009-04-02 07:05:37 51°17.089 2°42.893 9.2 8 7.9 101870 92
2009-04-02 07:05:42 51°17.1 2°42.873 7.1 8 7.9 101870 92
2009-04-02 07:05:46 51°17.11 2°42.858 6.6 4 7.9 101870 92
2009-04-02 07:05:52 51°17.123 2°42.835 8.6 6 7.9 101870 92
2009-04-02 07:05:57 51°17.134 2°42.815 7.2 6 7.9 101870 92
2009-04-02 07:06:02 51°17.146 2°42.796 9.2 1 7.9 101860 92
2009-04-02 07:06:06 51°17.155 2°42.78 7.8 4 7.9 101860 92
2009-04-02 07:06:12 51°17.169 2°42.757 6.9 6 7.9 101860 92
2009-04-02 07:06:17 51°17.181 2°42.738 8.4 5 7.9 101860 92
2009-04-02 07:06:22 51°17.192 2°42.718 9.1 7 7.9 101860 92
2009-04-02 07:06:26 51°17.201 2°42.702 6.7 6 7.9 101860 92
2009-04-02 07:06:32 51°17.215 2°42.679 7.7 4 7.9 101870 92
2009-04-02 07:06:37 51°17.226 2°42.659 7.7 5 7.9 101870 92
2009-04-02 07:06:42 51°17.238 2°42.639 7 5 7.9 101860 92
2009-04-02 07:06:46 51°17.247 2°42.623 9.3 8 7.9 101860 92
2009-04-02 07:06:52 51°17.261 2°42.599 7.1 7 7.9 101860 92
2009-04-02 07:06:57 51°17.273 2°42.58 8.4 6 7.9 101860 92
2009-04-02 07:07:02 51°17.284 2°42.56 7.6 5 7.9 101870 92
2009-04-02 07:07:07 51°17.296 2°42.541 6.7 7 7.9 101870 92
2009-04-02 07:07:12 51°17.307 2°42.52 9.6 9 7.9 101870 92
2009-04-02 07:07:17 51°17.319 2°42.501 8.9 5 7.9 101870 92
2009-04-02 07:07:22 51°17.331 2°42.481 8.7 6 7.9 101860 92
2009-04-02 07:07:26 51°17.34 2°42.465 7.8 5 7.9 101860 92
2009-04-02 07:07:32 51°17.355 2°42.441 7.9 5 7.9 101870 92
2009-04-02 07:07:37 51°17.367 2°42.422 8.4 5 7.9 101870 92
2009-04-02 07:07:42 51°17.379 2°42.402 8 2 7.9 101860 92
2009-04-02 07:07:46 51°17.388 2°42.386 9.7 5 7.9 101860 92
2009-04-02 07:07:52 51°17.402 2°42.363 9.3 7 7.9 101860 92
2009-04-02 07:07:57 51°17.414 2°42.343 8.2 6 7.9 101860 92
2009-04-02 07:08:02 51°17.426 2°42.323 9.1 4 7.9 101870 92
2009-04-02 07:08:06 51°17.436 2°42.308 7 7 7.9 101870 92
2009-04-02 07:08:12 51°17.449 2°42.284 6.6 5 7.9 101870 92
2009-04-02 07:08:17 51°17.462 2°42.265 6.4 3 7.9 101870 92
2009-04-02 07:08:22 51°17.474 2°42.245 7.8 2 7.9 101860 92
2009-04-02 07:08:26 51°17.483 2°42.229 7.7 6 7.9 101860 92
2009-04-02 07:08:32 51°17.498 2°42.205 7.1 -999 7.9 101870 92
2009-04-02 07:08:37 51°17.509 2°42.186 7.7 5 7.9 101870 92
2009-04-02 07:08:42 51°17.522 2°42.166 7.5 5 7.9 101860 92
2009-04-02 07:08:46 51°17.531 2°42.15 7.4 3 7.9 101860 92
2009-04-02 07:08:52 51°17.545 2°42.126 10.3 8 7.9 101860 92
2009-04-02 07:08:57 51°17.557 2°42.106 9 7 7.9 101860 92
2009-04-02 07:09:02 51°17.569 2°42.086 7.3 4 7.9 101870 92
2009-04-02 07:09:06 51°17.578 2°42.07 8.1 4 7.9 101870 92
2009-04-02 07:09:12 51°17.592 2°42.046 7.7 7 7.9 101860 92
2009-04-02 07:09:17 51°17.605 2°42.028 8.5 -999 7.9 101860 92
2009-04-02 07:09:22 51°17.616 2°42.007 8.2 2 7.9 101860 92
2009-04-02 07:09:27 51°17.628 2°41.987 8 5 7.9 101860 92
2009-04-02 07:09:32 51°17.639 2°41.967 9.3 4 7.9 101870 92
2009-04-02 07:09:37 51°17.651 2°41.948 7.7 3 7.9 101870 92
2009-04-02 07:09:42 51°17.663 2°41.929 7.7 3 7.9 101870 92
2009-04-02 07:09:46 51°17.673 2°41.913 7.8 2 7.9 101870 92
2009-04-02 07:09:52 51°17.687 2°41.89 9 8 7.9 101860 92
2009-04-02 07:09:57 51°17.699 2°41.872 8.6 1 7.9 101860 92
2009-04-02 07:10:02 51°17.711 2°41.852 7.7 6 7.9 101860 92
2009-04-02 07:10:06 51°17.721 2°41.837 9.2 8 7.9 101860 92
2009-04-02 07:10:12 51°17.736 2°41.814 7 6 7.9 101860 92
2009-04-02 07:10:17 51°17.747 2°41.794 8.7 5 7.9 101860 92
2009-04-02 07:10:22 51°17.76 2°41.775 7.5 4 7.9 101880 92
2009-04-02 07:10:27 51°17.772 2°41.756 7.6 3 7.9 101880 92
2009-04-02 07:10:32 51°17.784 2°41.736 8.5 8 7.9 101870 92
2009-04-02 07:10:37 51°17.796 2°41.717 9 3 7.9 101870 92
2009-04-02 07:10:42 51°17.809 2°41.698 10.4 9 7.9 101870 92
2009-04-02 07:10:46 51°17.818 2°41.682 7.4 1 7.9 101870 92
2009-04-02 07:10:52 51°17.833 2°41.659 7.9 2 7.9 101870 92
2009-04-02 07:10:57 51°17.845 2°41.641 8.5 3 7.9 101870 92
2009-04-02 07:11:02 51°17.857 2°41.621 8.2 3 7.9 101880 92
2009-04-02 07:11:06 51°17.867 2°41.607 9.1 5 7.9 101880 92
2009-04-02 07:11:12 51°17.881 2°41.583 7.1 6 7.9 101870 92
2009-04-02 07:11:17 51°17.893 2°41.565 7.1 360 7.9 101870 92
2009-04-02 07:11:22 51°17.905 2°41.546 8.3 2 7.9 101870 92
2009-04-02 07:11:27 51°17.917 2°41.528 7.8 3 7.9 101870 92
2009-04-02 07:11:32 51°17.929 2°41.508 9.4 3 7.9 101880 92
2009-04-02 07:11:37 51°17.941 2°41.489 8.5 4 7.9 101880 92
2009-04-02 07:11:42 51°17.953 2°41.469 8.6 5 7.9 101870 92
2009-04-02 07:11:46 51°17.962 2°41.454 7.2 6 7.9 101870 92
2009-04-02 07:11:52 51°17.976 2°41.431 7.3 1 7.9 101870 92
2009-04-02 07:11:57 51°17.988 2°41.411 8.3 6 7.9 101870 92
2009-04-02 07:12:02 51°17.999 2°41.392 7.4 5 7.9 101870 92
2009-04-02 07:12:06 51°18.009 2°41.376 7.1 4 7.9 101870 92
2009-04-02 07:12:12 51°18.022 2°41.353 9.8 7 7.9 101870 92
2009-04-02 07:12:17 51°18.034 2°41.334 7.2 6 7.9 101870 92
2009-04-02 07:12:22 51°18.045 2°41.315 8.4 5 7.9 101880 92
2009-04-02 07:12:26 51°18.054 2°41.299 6.6 4 7.9 101880 92
2009-04-02 07:12:32 51°18.068 2°41.277 8.6 4 7.9 101880 92
2009-04-02 07:12:37 51°18.079 2°41.258 8.1 4 7.9 101880 92
2009-04-02 07:12:42 51°18.091 2°41.239 7.8 5 7.9 101870 92
2009-04-02 07:12:47 51°18.102 2°41.22 7.3 6 7.9 101870 92
2009-04-02 07:12:52 51°18.114 2°41.202 8.7 3 7.9 101880 92
2009-04-02 07:12:57 51°18.125 2°41.182 9.4 3 7.9 101880 92
2009-04-02 07:13:02 51°18.137 2°41.163 8.4 7 7.9 101880 92
2009-04-02 07:13:06 51°18.145 2°41.148 7.3 6 7.9 101880 92
2009-04-02 07:13:12 51°18.158 2°41.124 8.1 5 7.9 101880 92
2009-04-02 07:13:17 51°18.17 2°41.106 7 2 7.9 101880 92
2009-04-02 07:13:22 51°18.181 2°41.087 8.4 7 7.9 101880 92
2009-04-02 07:13:26 51°18.19 2°41.071 7.3 4 7.9 101880 92
2009-04-02 07:13:32 51°18.203 2°41.048 9 8 7.9 101880 92
2009-04-02 07:13:37 51°18.215 2°41.029 7.8 3 7.9 101880 92
2009-04-02 07:13:42 51°18.225 2°41.008 8.9 2 7.9 101870 92
2009-04-02 07:13:46 51°18.235 2°40.994 6.8 3 7.9 101870 92
2009-04-02 07:13:52 51°18.248 2°40.969 8.3 6 7.9 101870 92
2009-04-02 07:13:57 51°18.26 2°40.95 9.6 7 7.9 101870 92
2009-04-02 07:14:02 51°18.271 2°40.93 8.1 6 7.9 101860 92
2009-04-02 07:14:06 51°18.279 2°40.914 7.4 5 7.9 101860 92
2009-04-02 07:14:12 51°18.293 2°40.891 6.6 5 7.9 101870 92
2009-04-02 07:14:17 51°18.304 2°40.871 7.4 8 7.9 101870 92
2009-04-02 07:14:22 51°18.316 2°40.852 6.5 7 7.9 101870 92
2009-04-02 07:14:27 51°18.326 2°40.832 9 7 7.9 101870 92
2009-04-02 07:14:32 51°18.338 2°40.814 9.3 4 7.9 101880 92
2009-04-02 07:14:37 51°18.349 2°40.793 6.2 6 7.9 101880 92
2009-04-02 07:14:42 51°18.361 2°40.774 8.1 4 7.9 101890 92
2009-04-02 07:14:46 51°18.37 2°40.759 7.1 5 7.9 101890 92
2009-04-02 07:14:52 51°18.383 2°40.735 8.3 6 7.9 101870 92
2009-04-02 07:14:57 51°18.395 2°40.716 8.7 4 7.9 101870 92
2009-04-02 07:15:02 51°18.406 2°40.695 6.8 7 7.9 101870 92
2009-04-02 07:15:06 51°18.415 2°40.681 8.9 4 7.9 101870 92
2009-04-02 07:15:12 51°18.429 2°40.657 8.4 7 7.9 101870 92
2009-04-02 07:15:17 51°18.441 2°40.638 7 3 7.9 101870 92
2009-04-02 07:15:22 51°18.452 2°40.618 9.5 4 7.9 101880 92
2009-04-02 07:15:26 51°18.462 2°40.604 7.4 5 7.9 101880 92
2009-04-02 07:15:32 51°18.475 2°40.581 7.7 9 7.9 101870 92
2009-04-02 07:15:37 51°18.487 2°40.562 8.6 2 7.9 101870 92
2009-04-02 07:15:42 51°18.498 2°40.542 7.9 6 7.9 101870 92
2009-04-02 07:15:46 51°18.508 2°40.527 8.2 5 7.9 101870 92
2009-04-02 07:15:52 51°18.521 2°40.503 7 5 7.9 101880 92
2009-04-02 07:15:57 51°18.533 2°40.484 8.4 5 7.9 101880 92
2009-04-02 07:16:02 51°18.544 2°40.465 8 3 8 101870 92
2009-04-02 07:16:06 51°18.553 2°40.449 8.9 6 8 101870 92
2009-04-02 07:16:12 51°18.567 2°40.426 9.3 4 8 101870 92
2009-04-02 07:16:17 51°18.577 2°40.406 8.5 10 8 101870 92
2009-04-02 07:16:22 51°18.588 2°40.387 9.6 8 7.9 101880 92
2009-04-02 07:16:26 51°18.597 2°40.373 6.4 6 7.9 101880 92
2009-04-02 07:16:32 51°18.609 2°40.349 7.6 4 8 101870 92
2009-04-02 07:16:37 51°18.621 2°40.33 7.6 1 8 101870 92
2009-04-02 07:16:42 51°18.631 2°40.31 7.1 3 7.9 101870 92
2009-04-02 07:16:46 51°18.64 2°40.294 6.6 2 7.9 101870 92
2009-04-02 07:16:52 51°18.654 2°40.271 8.7 7 7.9 101880 92
2009-04-02 07:16:57 51°18.664 2°40.25 6.4 4 7.9 101880 92
2009-04-02 07:17:02 51°18.676 2°40.231 10.5 5 7.9 101880 92
2009-04-02 07:17:06 51°18.684 2°40.214 8.9 7 7.9 101880 92
2009-04-02 07:17:12 51°18.698 2°40.191 8.8 7 7.9 101880 92
2009-04-02 07:17:17 51°18.708 2°40.17 7.9 4 7.9 101880 92
2009-04-02 07:17:22 51°18.719 2°40.15 7.4 5 7.9 101880 92
2009-04-02 07:17:27 51°18.73 2°40.13 7.1 6 7.9 101880 92
2009-04-02 07:17:32 51°18.741 2°40.11 7.6 2 7.9 101880 92
2009-04-02 07:17:37 51°18.751 2°40.09 7.9 6 7.9 101880 92
2009-04-02 07:17:42 51°18.762 2°40.07 10.7 9 7.9 101880 92
2009-04-02 07:17:46 51°18.771 2°40.054 7.1 5 7.9 101880 92
2009-04-02 07:17:52 51°18.783 2°40.028 8.1 6 7.9 101870 92
2009-04-02 07:17:57 51°18.794 2°40.008 8.2 8 7.9 101870 92
2009-04-02 07:18:02 51°18.805 2°39.988 7.1 360 7.9 101880 92
2009-04-02 07:18:06 51°18.813 2°39.971 8.4 6 7.9 101880 92
2009-04-02 07:18:12 51°18.826 2°39.948 6.7 4 7.9 101880 92
2009-04-02 07:18:17 51°18.837 2°39.927 7.2 2 7.9 101880 92
2009-04-02 07:18:22 51°18.847 2°39.907 6.8 5 7.9 101870 92
2009-04-02 07:18:26 51°18.856 2°39.891 6.4 5 7.9 101870 92
2009-04-02 07:18:32 51°18.869 2°39.866 6.6 6 7.9 101890 92
2009-04-02 07:18:37 51°18.88 2°39.846 7.2 5 7.9 101890 92
2009-04-02 07:18:42 51°18.891 2°39.825 8.6 7 7.9 101880 92
2009-04-02 07:18:46 51°18.9 2°39.809 7.2 4 7.9 101880 92
2009-04-02 07:18:52 51°18.913 2°39.785 8.3 3 8 101880 92
2009-04-02 07:18:57 51°18.924 2°39.764 7.6 7 8 101880 92
2009-04-02 07:19:02 51°18.935 2°39.744 6.4 3 7.9 101880 92
2009-04-02 07:19:06 51°18.943 2°39.727 8.1 4 7.9 101880 92
2009-04-02 07:19:12 51°18.957 2°39.703 7 3 7.9 101880 92
2009-04-02 07:19:17 51°18.968 2°39.682 7.1 6 7.9 101880 92
2009-04-02 07:19:22 51°18.979 2°39.661 8.1 4 7.9 101870 92
2009-04-02 07:19:26 51°18.988 2°39.645 7.4 3 7.9 101870 92
2009-04-02 07:19:32 51°19.001 2°39.62 7.8 5 7.9 101880 92
2009-04-02 07:19:37 51°19.013 2°39.6 7.5 6 7.9 101880 92
2009-04-02 07:19:42 51°19.024 2°39.579 8.5 8 7.9 101880 92
2009-04-02 07:19:46 51°19.033 2°39.563 7.5 1 7.9 101880 92
2009-04-02 07:19:52 51°19.046 2°39.538 8.4 2 7.9 101870 92
2009-04-02 07:19:57 51°19.057 2°39.518 7.2 4 7.9 101870 92
2009-04-02 07:20:02 51°19.068 2°39.497 8.8 9 7.9 101870 92
2009-04-02 07:20:06 51°19.076 2°39.481 7.3 6 7.9 101870 92
2009-04-02 07:20:12 51°19.089 2°39.456 6.9 3 7.9 101880 92
2009-04-02 07:20:17 51°19.1 2°39.435 8.2 5 7.9 101880 92
2009-04-02 07:20:22 51°19.111 2°39.415 7.8 6 7.9 101880 92
2009-04-02 07:20:26 51°19.119 2°39.398 9.6 9 7.9 101880 92
2009-04-02 07:20:32 51°19.134 2°39.374 6.9 5 7.9 101880 92
2009-04-02 07:20:37 51°19.144 2°39.353 6.7 5 7.9 101880 92
2009-04-02 07:20:42 51°19.155 2°39.333 7.3 6 7.9 101890 92
2009-04-02 07:20:46 51°19.164 2°39.316 7.3 7 7.9 101890 92
2009-04-02 07:20:52 51°19.177 2°39.291 7.7 6 7.9 101880 92
2009-04-02 07:20:57 51°19.187 2°39.271 6.1 5 7.9 101880 92
2009-04-02 07:21:02 51°19.198 2°39.251 9 3 7.9 101890 92
2009-04-02 07:21:06 51°19.207 2°39.234 7.5 6 7.9 101890 92
2009-04-02 07:21:12 51°19.22 2°39.209 9.5 6 7.9 101880 92
2009-04-02 07:21:17 51°19.231 2°39.188 10.1 9 7.9 101880 92
2009-04-02 07:21:22 51°19.242 2°39.167 8.5 8 7.9 101880 92
2009-04-02 07:21:26 51°19.251 2°39.15 8.1 8 7.9 101880 92
2009-04-02 07:21:32 51°19.264 2°39.126 6.8 5 7.9 101870 92
2009-04-02 07:21:37 51°19.273 2°39.104 7.4 9 7.9 101870 92
2009-04-02 07:21:42 51°19.284 2°39.083 8.4 6 7.9 101880 92
2009-04-02 07:21:46 51°19.292 2°39.066 8.9 10 7.9 101880 92
2009-04-02 07:21:52 51°19.304 2°39.04 6.5 2 7.9 101870 92
2009-04-02 07:21:57 51°19.314 2°39.019 7.8 6 7.9 101870 92
2009-04-02 07:22:02 51°19.324 2°38.998 7.1 3 7.9 101890 92
2009-04-02 07:22:06 51°19.332 2°38.98 7.6 6 7.9 101890 92